Location: Ballingbuur
(53.0000°N, 5.7667°E)
Time: 21:31:45
(UTC+00:00)

Cosmos 1602 - Pass Details

Date: 29 November 2020
Orbit: 512 x 534 km, 82.5° (Epoch: 24 January)

Event Time Altitude Azimuth Distance (km) Brightness Sun altitude
Rises 06:36:32 0° 183° (S) 2,667 7.7 -7.0°
Reaches altitude 10° 06:38:40 10° 181° (S) 1,784 6.8 -6.7°
Maximum altitude 06:42:34 70° 98° (E) 575 4.2 -6.2°
Drops below altitude 10° 06:46:31 10° 15° (NNE) 1,805 6.3 -5.7°
Sets 06:48:41 0° 13° (NNE) 2,701 7.2 -5.4°
